| time (UTC) | temp F | wind direction | speed knots | gust knots | rain 1hr in | rain 24hr in | rain mn in | humidity % | barometer mb |
| 20260506003052 | 54 | 50 | 3.5 | 9.6 | 0.00 | 0.19 | 0.19 | 91 | 990.7 |
| 20260506001554 | 54 | 3 | 2.6 | 11.3 | 0.00 | 0.19 | 0.19 | 91 | 990.4 |
| 20260506000052 | 54 | 46 | 2.6 | 8.7 | 0.00 | 0.19 | 0.19 | 91 | 990.6 |
| 20260505234600 | 54 | 47 | 4.3 | 8.7 | 0.00 | 0.19 | 0.19 | 91 | 990.3 |
| 20260505233108 | 54 | 32 | 3.5 | 8.7 | 0.01 | 0.19 | 0.19 | 91 | 990.2 |
| 20260505231557 | 54 | 72 | 3.5 | 8.7 | 0.02 | 0.19 | 0.19 | 92 | 989.9 |
| 20260505230055 | 54 | 110 | 8.7 | 16.5 | 0.03 | 0.19 | 0.19 | 92 | 990.2 |
| 20260505224555 | 54 | 64 | 5.2 | 13.0 | 0.06 | 0.19 | 0.19 | 92 | 990.3 |
| 20260505223055 | 54 | 70 | 6.1 | 16.5 | 0.06 | 0.18 | 0.18 | 91 | 990.4 |
| 20260505221553 | 54 | 151 | 4.3 | 8.7 | 0.12 | 0.17 | 0.17 | 92 | 990.1 |
| 20260505220053 | 54 | 141 | 3.5 | 14.8 | 0.16 | 0.16 | 0.16 | 93 | 990.1 |
| 20260505214554 | 55 | 116 | 7.8 | 16.5 | 0.13 | 0.13 | 0.13 | 92 | 990.7 |
| 20260505213053 | 56 | 102 | 7.8 | 15.6 | 0.12 | 0.12 | 0.12 | 90 | 990.2 |
| 20260505211606 | 59 | 153 | 7.8 | 29.5 | 0.04 | 0.04 | 0.04 | 81 | 989.0 |
| 20260505210054 | 69 | 62 | 9.6 | 19.1 | 0.00 | 0.00 | 0.00 | 47 | 987.1 |
| 20260505204601 | 70 | 42 | 8.7 | 18.2 | 0.00 | 0.00 | 0.00 | 47 | 986.7 |
| 20260505203055 | 69 | 15 | 4.3 | 17.4 | 0.00 | 0.00 | 0.00 | 48 | 986.5 |
| 20260505201559 | 69 | 47 | 4.3 | 16.5 | 0.00 | 0.00 | 0.00 | 48 | 986.6 |
| 20260505200054 | 69 | 331 | 5.2 | 17.4 | 0.00 | 0.00 | 0.00 | 49 | 986.6 |
| 20260505194607 | 69 | 38 | 10.4 | 20.0 | 0.00 | 0.00 | 0.00 | 49 | 986.9 |
| 20260505193052 | 70 | 40 | 4.3 | 20.9 | 0.00 | 0.00 | 0.00 | 49 | 987.1 |
| 20260505191550 | 70 | 29 | 11.3 | 22.6 | 0.00 | 0.00 | 0.00 | 48 | 987.0 |
| 20260505190052 | 70 | 81 | 8.7 | 20.0 | 0.00 | 0.00 | 0.00 | 50 | 987.1 |
| 20260505184550 | 70 | 17 | 12.2 | 23.5 | 0.00 | 0.00 | 0.00 | 47 | 987.3 |
| 20260505183051 | 70 | 45 | 8.7 | 17.4 | 0.00 | 0.00 | 0.00 | 49 | 987.7 |
| 20260505181555 | 69 | 48 | 4.3 | 14.8 | 0.00 | 0.00 | 0.00 | 52 | 987.7 |
| 20260505180051 | 68 | 45 | 11.3 | 25.2 | 0.00 | 0.00 | 0.00 | 52 | 987.7 |
| 20260505174555 | 68 | 45 | 10.4 | 20.9 | 0.00 | 0.01 | 0.00 | 52 | 987.9 |
| 20260505173051 | 68 | 41 | 8.7 | 18.2 | 0.00 | 0.01 | 0.00 | 52 | 988.2 |
| 20260505171553 | 67 | 65 | 11.3 | 22.6 | 0.00 | 0.01 | 0.00 | 52 | 988.6 |
| 20260505170048 | 67 | 52 | 7.8 | 20.0 | 0.00 | 0.01 | 0.00 | 53 | 988.5 |
| 20260505164615 | 66 | 59 | 11.3 | 20.0 | 0.00 | 0.02 | 0.00 | 56 | 988.8 |
| 20260505163102 | 65 | 32 | 10.4 | 17.4 | 0.00 | 0.02 | 0.00 | 57 | 989.0 |
| 20260505161607 | 66 | 48 | 8.7 | 18.2 | 0.00 | 0.02 | 0.00 | 56 | 989.3 |
| 20260505153051 | 65 | 56 | 8.7 | 19.1 | 0.00 | 0.03 | 0.00 | 57 | 989.6 |
| 20260505151555 | 63 | 49 | 8.7 | 17.4 | 0.00 | 0.03 | 0.00 | 58 | 989.9 |
| 20260505130110 | 59 | 23 | 8.7 | 13.0 | 0.00 | 0.03 | 0.00 | 59 | 989.9 |
| 20260505124600 | 59 | 31 | 9.6 | 16.5 | 0.00 | 0.03 | 0.00 | 58 | 989.6 |
| 20260505123051 | 59 | 58 | 7.0 | 14.8 | 0.00 | 0.03 | 0.00 | 58 | 990.0 |
| 20260505121555 | 58 | 40 | 8.7 | 16.5 | 0.00 | 0.03 | 0.00 | 61 | 990.1 |
| 20260505120108 | 57 | 59 | 7.8 | 14.8 | 0.00 | 0.03 | 0.00 | 60 | 990.4 |
| 20260505114555 | 56 | 20 | 7.0 | 13.9 | 0.00 | 0.03 | 0.00 | 61 | 990.5 |
| 20260505113054 | 56 | 20 | 8.7 | 15.6 | 0.00 | 0.03 | 0.00 | 61 | 990.5 |
| 20260505111547 | 55 | 41 | 8.7 | 15.6 | 0.00 | 0.03 | 0.00 | 62 | 990.4 |
| 20260505101552 | 54 | 27 | 10.4 | 15.6 | 0.00 | 0.03 | 0.00 | 62 | 990.2 |
| 20260505100048 | 54 | 70 | 7.8 | 16.5 | 0.00 | 0.03 | 0.00 | 62 | 990.2 |
| 20260505094550 | 54 | 33 | 10.4 | 17.4 | 0.00 | 0.03 | 0.00 | 61 | 990.2 |
| 20260505093053 | 54 | 11 | 9.6 | 14.8 | 0.00 | 0.03 | 0.00 | 61 | 990.3 |
| 20260505091550 | 54 | 33 | 8.7 | 16.5 | 0.00 | 0.03 | 0.00 | 61 | 990.3 |
| 20260505090053 | 54 | 27 | 8.7 | 18.2 | 0.00 | 0.03 | 0.00 | 60 | 990.3 |
| 20260505084551 | 54 | 64 | 9.6 | 16.5 | 0.00 | 0.03 | 0.00 | 59 | 990.3 |
| 20260505083049 | 54 | 61 | 9.6 | 20.0 | 0.00 | 0.03 | 0.00 | 59 | 990.4 |
| 20260505081554 | 53 | 37 | 9.6 | 15.6 | 0.00 | 0.03 | 0.00 | 59 | 990.5 |
| 20260505080050 | 53 | 42 | 7.8 | 14.8 | 0.00 | 0.03 | 0.00 | 59 | 990.6 |
| 20260505074553 | 53 | 22 | 7.8 | 15.6 | 0.00 | 0.03 | 0.00 | 59 | 990.5 |
| 20260505073050 | 53 | 38 | 7.8 | 15.6 | 0.00 | 0.03 | 0.00 | 59 | 990.6 |
| 20260505071554 | 53 | 33 | 9.6 | 16.5 | 0.00 | 0.03 | 0.00 | 60 | 990.6 |
| 20260505070053 | 53 | 11 | 8.7 | 15.6 | 0.00 | 0.03 | 0.00 | 60 | 990.5 |
| 20260505064549 | 53 | 29 | 10.4 | 18.2 | 0.00 | 0.03 | 0.00 | 60 | 990.6 |
| 20260505063048 | 53 | 23 | 10.4 | 16.5 | 0.00 | 0.03 | 0.00 | 60 | 990.6 |
| 20260505061554 | 53 | 8 | 8.7 | 13.9 | 0.00 | 0.03 | 0.00 | 60 | 990.4 |
| 20260505060056 | 53 | 12 | 10.4 | 17.4 | 0.00 | 0.03 | 0.00 | 59 | 990.4 |
| 20260505054557 | 53 | 16 | 9.6 | 17.4 | 0.00 | 0.03 | 0.00 | 60 | 990.6 |
| 20260505053101 | 53 | 7 | 8.7 | 14.8 | 0.00 | 0.03 | 0.00 | 60 | 990.6 |
| 20260505051554 | 53 | 38 | 8.7 | 13.0 | 0.00 | 0.03 | 0.00 | 60 | 990.5 |
| 20260505041553 | 53 | 43 | 7.8 | 14.8 | 0.00 | 0.03 | 0.00 | 61 | 990.5 |
| 20260505040054 | 53 | 15 | 7.8 | 13.9 | 0.00 | 0.03 | 0.00 | 61 | 990.3 |
| 20260505034550 | 53 | 29 | 8.7 | 12.2 | 0.00 | 0.03 | 0.03 | 62 | 990.3 |
| 20260505033051 | 52 | 31 | 7.8 | 13.0 | 0.00 | 0.03 | 0.03 | 62 | 990.3 |
| 20260505031549 | 52 | 10 | 7.8 | 13.0 | 0.00 | 0.03 | 0.03 | 62 | 990.4 |
| 20260505030053 | 52 | 8 | 7.8 | 13.9 | 0.00 | 0.03 | 0.03 | 63 | 990.3 |
| 20260505024552 | 52 | 12 | 7.8 | 12.2 | 0.00 | 0.03 | 0.03 | 65 | 990.5 |
| 20260505023055 | 52 | 25 | 7.8 | 12.2 | 0.00 | 0.03 | 0.03 | 65 | 990.5 |
| 20260505021552 | 51 | 32 | 7.8 | 10.4 | 0.00 | 0.03 | 0.03 | 66 | 990.6 |
| 20260505020055 | 52 | 22 | 7.0 | 12.2 | 0.00 | 0.03 | 0.03 | 66 | 990.6 |
| 20260505014553 | 52 | 35 | 6.1 | 13.0 | 0.00 | 0.03 | 0.03 | 66 | 990.8 |
| 20260505013054 | 51 | 6 | 7.8 | 13.0 | 0.00 | 0.03 | 0.03 | 68 | 990.7 |
| 20260505011554 | 50 | 11 | 7.8 | 11.3 | 0.00 | 0.03 | 0.03 | 70 | 990.4 |
| 20260505010101 | 50 | 22 | 6.1 | 10.4 | 0.00 | 0.03 | 0.03 | 69 | 990.4 |
| 20260505004602 | 50 | 49 | 7.0 | 12.2 | 0.00 | 0.03 | 0.03 | 70 | 990.2 |